Simultaneous Nadir Overpasses (SNOs) Predictions

Prediction of SNOs between LANDSAT-8 and NOAA-19 Satellite Orbit:

Table of predicted SNOs for the next 14.0 days since TLE Epoch: 11/9/2019
Index Date (LANDSAT-8) Time (LANDSAT-8) Lat,Lon (LANDSAT-8) SZA (LANDSAT-8 ) Date (NOAA-19) Time (NOAA-19) Lat,Lon (NOAA-19) SZA (NOAA-19 ) Distance(km) Time Diff (sec)
1 11/09/2019 06:24:48 -79.22, -74.08 82.99 11/09/2019 06:24:18 -79.23, -74.11 82.99 1.32 30
2 11/09/2019 07:14:15 79.18, 93.31 96.97 11/09/2019 07:15:13 79.22, 93.32 97.02 3.53 58
3 11/11/2019 11:58:31 79.23, 22.52 97.64 11/11/2019 11:57:36 79.26, 22.47 97.65 3.22 55
4 11/11/2019 12:47:59 -79.19,-170.06 82.40 11/11/2019 12:48:40 -79.23,-170.04 82.36 3.64 41
5 11/13/2019 17:32:15 -79.24, 119.15 81.75 11/13/2019 17:31:02 -79.24, 119.31 81.76 3.37 73
6 11/13/2019 18:21:41 79.23, -73.24 98.25 11/13/2019 18:21:57 79.21, -73.15 98.25 3.00 16
7 11/15/2019 23:55:24 -79.24, 23.39 81.17 11/15/2019 23:55:23 -79.24, 23.33 81.18 1.35 1
8 11/18/2019 05:29:07 79.24, 119.92 99.37 11/18/2019 05:28:41 79.24, 120.08 99.38 3.33 26
9 11/18/2019 06:18:35 -79.21, -72.62 80.67 11/18/2019 06:19:45 -79.24, -72.67 80.62 3.52 70
10 11/20/2019 11:02:51 -79.25,-143.45 80.12 11/20/2019 11:02:07 -79.26,-143.38 80.11 2.24 44
11 11/20/2019 11:52:17 79.24, 24.13 99.88 11/20/2019 11:53:03 79.23, 24.17 99.90 1.03 46
12 11/22/2019 16:36:33 79.27, -46.72 100.40 11/22/2019 16:35:26 79.27, -46.72 100.38 0.23 67




NCC Satellite Simultaneous Nadir Overpasses (SNOs) Prediction Service
